DMSP 5D-2 F11 DEB, 29070

Orbit data source: Space-Track

DMSP 5D-2 F11 DEB, 29070 is space debris in SSO originally from a launch on Thu, 28 Nov 1991 UTC launched from the Air Force Western Test Range (AFWTR). Debris objects in space refer to the collection of defunct objects orbiting the Earth. Examples of debris include non-operational satellites, rocket bodies, and fragments generated from explosions, collisions, or faulty payload assembly.

Loading next visibility...
Identifier
29070, 1991-082BR
Orbit
SSO
Country
Flag of USUS
Related business
Manufacturer
Unknown
Mission
Spacecraft
Bus & Motor
Unknown
Mass
Unknown
Launch date (UTC)
1991-11-28 (34 years ago)
Launch vehicle
Unknown
Launch site
Air Force Western Test Range (AFWTR)
Object type
Payload
Rocket body
Debris
Shape & HBR
Unknown shape, 0.1 m
Radar Cross Section
Small (<0.1 m²)

Expand to show TLE details & history
Last TLE update: 1 day ago

TLE from 1 day ago
0 DMSP 5D-2 F11 DEB
1 29070U 91082BR  26120.79382053  .00044110  00000-0  41570-2 0  9995
2 29070  98.5930 245.1573 0008396 173.3150 186.8181 14.93615641125895
Epoch: 2026-04-30T19:03Z
TLE epoch observation values (Epoch: 2026-04-30T19:03:06.093Z)
Latitude
-0.00002°
Longitude
100.64659°
Altitude
595.499 km
Speed
7.559 km/s
True Right ascension
16h 20m 37s
True Declination
0° 00' 00"
Sunlit
Object was in full shadow at epoch
Visualization orbit readout
Latitude
Unknown
Longitude
Unknown
Altitude
Unknown
Speed
Unknown
Apparent Right ascension
Unknown
Apparent Declination
Unknown
Sunlit
N/A
Visualization observer readout
Local Sidereal Time
04:05:13
Azimuth
Unknown
Elevation
Unknown
Doppler factor
Unknown
Orbital elements
Apogee altitude
589.573 km
Perigee altitude
577.883 km
Semi-major axis
6,961.865 km
Eccentricity
0.00084
Inclination
98.593°
RAAN
245.1573°
Arg. of periapsis
173.315°
True anomaly
186.80669°
Mean anomaly
186.8181°
Eccentric anomaly
186.81239°
Mean motion
3.73641 °/min
Orbital period
96.35 mins
BSTAR
0.004157
Loading maneuver chart data...
Computing Atmospheric mass density...

Documentation

Showing up to 5 results
|